イェーガー彗星

290P/Jager (1999)

English version
Home page
Updated on December 31, 2016

---------------------------------------------------------------------

・ プロフィール

符号 290P/1998 U3
発見日 1998年10月23日
発見光度 12.5等
発見者 Michael Jager (east of Vienna)

・ 写真集

・ 軌道要素

Epoch 1999 Mar. 3.0 TT = JDT 2451240.5
T 1999 Mar. 10.06287 TT                                 MPC
q   2.1338677            (2000.0)            P               Q
n   0.06599930     Peri.  180.89233     -0.56475077     -0.77869546
a   6.0642414      Node   303.54249     +0.75917939     -0.36036817
e   0.6481229      Incl.   19.14120     +0.32357878     -0.51358365
P  14.9
From 719 observations 1998 Oct. 24-2013 July 12, mean residual 0".8.

・ 星図

・ 光度変化

        m1 = 1.7 + 5 logΔ + 25 log r(t + 33)

---------------------------------------------------------------------

軌道要素はM.P.E.C. 2013-N46に掲載されたものです。
星図は StellaNavigator Ver.2.0 for Windows (アストロアーツ 編著 / アスキー出版局刊) で作成したものです。
光度グラフはComet for Windowsで作成したものです。

---------------------------------------------------------------------

Copyright(C) Seiichi Yoshida (comet@aerith.net). All rights reserved.